Bournemouth, United Kingdom

3:09 AM GMT on February 13, 2016 (GMT +0000)
Bournemouth

Weather History for EGHH - August, 2014

Change the Weather History Date:

Sunday, August 17, 2014

  Actual Average Record
Temperature  
Mean Temperature 62 °F -  
Max Temperature 70 °F 67 °F 77 °F (1997)
Min Temperature 53 °F 50 °F 46 °F (2005)
Degree Days  
Heating Degree Days 4    
Growing Degree Days 12 (Base 50)    
Moisture  
Dew Point 51 °F    
Average Humidity 66    
Maximum Humidity 88    
Minimum Humidity 32    
Precipitation  
Precipitation 0.02 in 0.08 in - ()
Sea Level Pressure  
Sea Level Pressure 29.87 in    
Wind  
Wind Speed 12 mph ()    
Max Wind Speed 22 mph    
Max Gust Speed 29 mph    
Visibility 8.7 miles    
Events Rain    
Averages and records for this station are not official NWS values.
T = Trace of Precipitation, MM = Missing Value Source: Averaged Metar Reports

Daily Weather History Graph

Daily Weather History Graph

Search for Another Location

Airport or City:

Trip Planner

Search our weather history database for the weather conditions in past years. The results will help you decide how hot, cold, wet, or windy it might be!

Date:

Astronomy

Aug. 17, 2014 Rise Set
Actual Time 5:57 AM BST 8:24 PM BST
Civil Twilight 5:21 AM BST 9:00 PM BST
Nautical Twilight 4:34 AM BST 9:46 PM BST
Astronomical Twilight 3:40 AM BST 10:39 PM BST
Moon 11:49 PM BST (8/17) 2:20 PM BST (8/17)
Length of Visible Light 15h 39m
Length of Day
14h 26m
Waning Gibbous, 51% of the Moon is Illuminated
Aug 17
Waning Gibbous
Aug 17
Last Quarter
Aug 25
New
Sep 2
First Quarter
Sep 9
Full

Hourly Weather History & Observations

Time (BST) Temp. Dew Point Humidity Pressure Visibility Wind Dir Wind Speed Gust Speed Precip Events Conditions
12:00 AM 59 °F 51 °F 66% 30.06 in 11 mi West 8.1 mph - -   Overcast
1:00 AM 59 °F 50 °F 64% 30.04 in 11 mi West 11.5 mph - -   Overcast
2:00 AM 59 °F 51 °F 68% 30.01 in 11 mi WSW 11.5 mph - -   Overcast
3:00 AM 59 °F 52 °F 70% 29.99 in 11 mi WSW 11.5 mph - -   Overcast
4:00 AM 59 °F 51 °F 68% 29.97 in 11 mi West 12.7 mph - -   Scattered Clouds
4:50 AM 59.0 °F 51.8 °F 77% 29.95 in 6.2 mi West 12.7 mph - N/A   Mostly Cloudy
5:00 AM 58 °F 52 °F 75% 29.95 in 11 mi West 12.7 mph - -   Overcast
5:20 AM 59.0 °F 53.6 °F 82% 29.92 in 6.2 mi West 12.7 mph - N/A   Mostly Cloudy
5:50 AM 59.0 °F 53.6 °F 82% 29.92 in 6.2 mi WSW 12.7 mph - N/A   Mostly Cloudy
6:00 AM 58 °F 53 °F 79% 29.94 in 11 mi WSW 12.7 mph - -   Overcast
6:20 AM 59.0 °F 53.6 °F 82% 29.92 in 6.2 mi WSW 13.8 mph - N/A   Mostly Cloudy
6:50 AM 59.0 °F 53.6 °F 82% 29.92 in 6.2 mi West 13.8 mph - N/A   Mostly Cloudy
7:00 AM 58 °F 53 °F 79% 29.93 in 11 mi West 11.5 mph - -  
7:20 AM 59.0 °F 53.6 °F 82% 29.92 in 6.2 mi West 12.7 mph - N/A   Mostly Cloudy
7:50 AM 59.0 °F 51.8 °F 77% 29.92 in 6.2 mi West 12.7 mph - N/A   Mostly Cloudy
8:00 AM 59 °F 53 °F 73% 29.93 in 11 mi West 11.5 mph - -   Overcast
8:20 AM 59.0 °F 51.8 °F 77% 29.92 in 6.2 mi West 12.7 mph - N/A   Mostly Cloudy
8:50 AM 60.8 °F 51.8 °F 72% 29.89 in 6.2 mi West 11.5 mph - N/A   Mostly Cloudy
9:00 AM 60 °F 52 °F 69% 29.91 in 12 mi West 11.5 mph - -   Mostly Cloudy
9:20 AM 60.8 °F 53.6 °F 77% 29.89 in 6.2 mi WSW 12.7 mph - N/A   Mostly Cloudy
9:50 AM 62.6 °F 53.6 °F 72% 29.89 in 6.2 mi West 13.8 mph - N/A   Mostly Cloudy
10:00 AM 62 °F 53 °F 65% 29.89 in 11 mi West 15.0 mph - -   Mostly Cloudy
10:20 AM 62.6 °F 53.6 °F 72% 29.86 in 6.2 mi West 16.1 mph - N/A   Mostly Cloudy
10:50 AM 64.4 °F 53.6 °F 68% 29.86 in 6.2 mi West 18.4 mph - N/A   Partly Cloudy
11:00 AM 64 °F 54 °F 61% 29.88 in 12 mi West 16.1 mph - -   Scattered Clouds
11:20 AM 64.4 °F 53.6 °F 68% 29.86 in 6.2 mi West 19.6 mph - N/A   Scattered Clouds
11:50 AM 62.6 °F 55.4 °F 77% 29.86 in 6.2 mi West 17.3 mph - N/A Rain Light Rain Showers
12:00 PM 62 °F 55 °F 70% 29.87 in 7 mi West 16.1 mph - -   Mostly Cloudy
12:20 PM 64.4 °F 57.2 °F 77% 29.83 in 6.2 mi West 13.8 mph - N/A   Scattered Clouds
12:50 PM 64.4 °F 57.2 °F 77% 29.83 in 6.2 mi West 18.4 mph - N/A Rain Light Rain Showers
1:00 PM 58 °F 52 °F 75% 29.86 in 4 mi WNW 20.7 mph - - Rain Light Rain Showers
1:20 PM 59.0 °F 55.4 °F 88% 29.86 in 6.2 mi WNW 13.8 mph - N/A Rain Light Rain Showers
1:50 PM 64.4 °F 59.0 °F 83% 29.83 in 6.2 mi West 12.7 mph - N/A   Scattered Clouds
2:00 PM 64 °F 57 °F 70% 29.85 in 14 mi West 11.5 mph - - Rain Rain
2:20 PM 66.2 °F 57.2 °F 73% 29.83 in 6.2 mi West 12.7 mph - N/A   Scattered Clouds
2:50 PM 68.0 °F 55.4 °F 64% 29.83 in 6.2 mi West 17.3 mph - N/A   Scattered Clouds
3:00 PM 68 °F 53 °F 50% 29.83 in 19 mi West 19.6 mph - -   Scattered Clouds
3:20 PM 69.8 °F 51.8 °F 53% 29.83 in 6.2 mi West 21.9 mph - N/A   Partly Cloudy
3:50 PM 66.2 °F 50.0 °F 56% 29.80 in 6.2 mi NW 15.0 mph - N/A   Partly Cloudy
4:00 PM 66 °F 51 °F 49% 29.83 in 16 mi WNW 17.3 mph - -   Partly Cloudy
4:20 PM 66.2 °F 50.0 °F 56% 29.80 in 6.2 mi West 18.4 mph - N/A   Partly Cloudy
4:50 PM 68.0 °F 44.6 °F 43% 29.80 in 6.2 mi WNW 17.3 mph 28.8 mph N/A   Partly Cloudy
5:00 PM 67 °F 44 °F 32% 29.82 in 16 mi WNW 18.4 mph - -   Partly Cloudy
5:20 PM 68.0 °F 44.6 °F 43% 29.80 in 6.2 mi NW 18.4 mph - N/A   Partly Cloudy
5:50 PM 66.2 °F 44.6 °F 46% 29.80 in 6.2 mi WNW 19.6 mph - N/A   Partly Cloudy
6:00 PM 66 °F 46 °F 36% 29.82 in 17 mi WNW 18.4 mph - -  
6:20 PM 66.2 °F 44.6 °F 46% 29.80 in 6.2 mi WNW 19.6 mph - N/A   Partly Cloudy
6:50 PM 64.4 °F 46.4 °F 52% 29.80 in 6.2 mi WNW 18.4 mph - N/A   Partly Cloudy
7:00 PM 65 °F 47 °F 41% 29.82 in 16 mi WNW 18.4 mph - -  
7:20 PM 64.4 °F 44.6 °F 49% 29.80 in 6.2 mi WNW 13.8 mph - N/A   Partly Cloudy
7:50 PM 62.6 °F 46.4 °F 55% 29.80 in 6.2 mi WNW 8.1 mph - N/A   Partly Cloudy
8:00 PM 61 °F 46 °F 47% 29.82 in 14 mi WNW 8.1 mph - -   Scattered Clouds
8:20 PM 59.0 °F 44.6 °F 59% 29.80 in 6.2 mi WNW 10.4 mph - N/A   Partly Cloudy
8:50 PM 59.0 °F 44.6 °F 59% 29.80 in 6.2 mi West 9.2 mph - N/A   Partly Cloudy
9:00 PM 57 °F 45 °F 55% 29.83 in 13 mi West 8.1 mph - -  
9:20 PM 53.6 °F 44.6 °F 72% 29.83 in 6.2 mi West 5.8 mph - N/A   Partly Cloudy
9:50 PM 53.6 °F 46.4 °F 77% 29.83 in - West 6.9 mph - N/A   Clear
10:00 PM 54 °F 46 °F 66% 29.83 in 13 mi West 6.9 mph - -  
10:20 PM 55.4 °F 48.2 °F 77% 29.83 in - West 10.4 mph - N/A   Clear
10:50 PM 55.4 °F 48.2 °F 77% 29.83 in - West 9.2 mph - N/A   Clear
11:00 PM 55 °F 49 °F 72% 29.83 in 12 mi West 10.4 mph - -